Date,TemperatureHighF,TemperatureAvgF,TemperatureLowF,DewpointHighF,DewpointAvgF,DewpointLowF,HumidityHigh,HumidityAvg,HumidityLow,PressureMaxIn,PressureMinIn,WindSpeedMaxMPH,WindSpeedAvgMPH,GustSpeedMaxMPH,PrecipitationSumIn
2013-11-1,0.0,0.0,0.0,71.3,71.3,71.3,0,0,100,29.89,29.52,0,0,0,0.00
2013-11-2,0.0,0.0,0.0,71.3,71.3,71.3,0,0,100,30.11,29.88,0,0,0,0.00
2013-11-3,0.0,0.0,0.0,71.3,71.3,71.3,0,0,100,30.06,29.76,0,0,0,0.00
2013-11-4,0.0,0.0,0.0,71.3,71.3,71.3,0,0,100,30.07,29.78,0,0,0,0.00
2013-11-5,0.0,0.0,0.0,71.3,71.3,71.3,0,0,100,30.07,29.74,0,0,0,0.00
2013-11-6,0.0,0.0,0.0,71.3,71.3,71.3,0,0,100,30.21,29.88,0,0,0,0.00
2013-11-7,0.0,0.0,0.0,71.3,71.3,71.3,0,0,100,30.29,30.19,0,0,0,0.00
2013-11-8,0.0,0.0,0.0,71.3,71.3,71.3,0,0,100,30.23,29.71,0,0,0,0.00
2013-11-9,0.0,0.0,0.0,71.3,71.3,71.3,0,0,100,30.26,29.85,0,0,0,0.00
2013-11-10,0.0,0.0,0.0,71.3,71.3,71.3,0,0,100,30.35,30.10,0,0,0,0.00
2013-11-11,0.0,0.0,0.0,71.3,71.3,71.3,0,0,100,30.65,30.04,0,0,0,0.00
2013-11-12,0.0,0.0,0.0,71.3,71.3,71.3,0,0,100,30.79,30.52,0,0,0,0.00
2013-11-13,0.0,0.0,0.0,71.3,71.3,71.3,0,0,100,30.53,29.98,0,0,0,0.00
2013-11-14,0.0,0.0,0.0,71.3,71.3,71.3,0,0,100,29.99,29.83,0,0,0,0.00
2013-11-15,0.0,0.0,0.0,71.3,71.3,71.3,0,0,100,29.86,29.62,0,0,0,0.00
2013-11-16,0.0,0.0,0.0,71.3,71.3,71.3,0,0,100,29.62,29.28,0,0,0,0.00
2013-11-17,0.0,0.0,0.0,71.3,71.3,71.3,0,0,100,29.98,29.22,0,0,0,0.00
2013-11-18,0.0,0.0,0.0,71.3,71.3,71.3,0,0,100,30.19,29.98,0,0,0,0.00
2013-11-19,0.0,0.0,0.0,71.3,71.3,71.3,0,0,100,30.15,29.87,0,0,0,0.00
2013-11-20,0.0,0.0,0.0,71.3,71.3,71.3,0,0,100,29.90,29.76,0,0,0,0.00
2013-11-21,0.0,0.0,0.0,71.3,71.3,71.3,0,0,100,30.41,29.89,0,0,0,0.00
2013-11-22,0.0,0.0,0.0,71.3,71.3,71.3,0,0,100,30.59,30.41,0,0,0,0.00
2013-11-23,0.0,0.0,0.0,71.3,71.3,71.3,0,0,100,30.76,30.52,0,0,0,0.00
2013-11-24,0.0,0.0,0.0,71.3,71.3,71.3,0,0,100,30.67,30.18,0,0,0,0.00
2013-11-25,0.0,0.0,0.0,71.3,71.3,71.3,0,0,100,30.18,30.04,0,0,0,0.00
2013-11-26,0.0,0.0,0.0,71.3,71.3,71.3,0,0,100,30.32,30.09,0,0,0,0.00
2013-11-27,0.0,0.0,0.0,71.3,71.3,71.3,0,0,100,30.33,29.99,0,0,0,0.00
2013-11-28,0.0,0.0,0.0,71.3,71.3,71.3,0,0,100,30.42,29.98,0,0,0,0.00
2013-11-29,0.0,0.0,0.0,71.3,71.3,71.3,0,0,100,30.42,30.11,0,0,0,0.00
2013-11-30,0.0,0.0,0.0,71.3,71.3,71.3,0,0,100,30.12,29.98,0,0,0,0.00